Dewpoint
-2 -1 -2 -2 -4 -4 -3 -4 -6 -7 -7 -1 3 10 11 11 12 14 15 13 11 9 9 7 4 0 0 4 6 5 3 4 4 1 -1 -4 -5 -2 1 4 7 7 6 5 6 8 6 8 10
-3 -2 -1 -3 -2 -1 -2 -5 -5 -6 -6 -7 -1 11 11 10 13 15 14 13 10 9 9 7 4 0 0 3 4 4 3 3 1 -1 -3 -5 -5 -1 4 6 6 7 7 6 6 9 8 10 11
-3 -3 -2 -3 -2 -1 -2 -5 -5 -6 -2 -3 3 12 11 10 13 14 13 11 9 9 9 7 5 0 -0 1 3 5 4 2 -1 -2 -3 -4 -4 -0 3 5 6 7 6 6 6 9 10 10 11
-4 -4 -3 -0 -0 -3 -4 -5 -6 -5 5 3 8 13 11 9 10 11 13 12 9 9 9 8 5 -0 -1 0 3 5 4 1 -1 -2 -2 -2 -1 1 1 1 0 -0 1 3 5 8 10 11 10
-7 -7 -1 1 -0 -2 -4 -5 -6 -4 -1 7 9 13 12 11 12 13 14 13 10 10 9 8 4 -1 -1 1 3 4 4 0 -1 -1 -2 -1 -1 0 0 -1 -2 -3 -2 -1 4 8 10 11 11
-6 -6 -0 1 -0 -3 -4 -5 -6 -6 -5 6 12 13 13 11 13 13 13 13 9 10 9 8 3 -0 -1 1 1 3 3 0 -1 -2 -2 -1 -0 -0 -2 -3 -3 -2 -1 1 4 8 10 11 11
-9 -3 -1 -1 -1 -2 -4 -5 -5 -5 -6 -5 9 14 13 11 11 12 12 13 12 10 10 7 2 0 -0 -0 -0 2 1 0 -0 -1 -0 0 -1 -2 -2 -1 -0 2 3 5 7 9 10 11 11
-16 -6 -3 -2 -1 -2 -5 -6 -3 -2 -7 -8 7 13 13 11 11 11 13 14 14 12 10 7 2 1 -0 0 0 1 0 0 0 1 0 -0 -1 -0 1 3 5 7 9 10 11 11 11 11 10
-11 -13 -6 -4 -3 -3 -5 -4 -2 -1 -0 -3 2 10 10 11 11 12 14 15 14 11 9 7 2 1 1 0 0 0 0 1 1 1 0 -1 -0 1 4 6 10 11 11 11 10 10 9 7 6
-10 -13 -13 -11 -8 -6 -6 -6 -2 -2 -1 -0 10 10 9 11 11 12 14 14 13 11 9 6 2 1 2 1 0 -0 0 1 0 -0 3 5 5 6 5 10 12 12 12 10 9 8 8 7 7
-12 -10 -15 -15 -13 -12 -12 -8 -3 -1 1 0 12 12 11 12 11 13 14 14 13 11 9 5 2 3 2 1 -0 -1 -1 -1 5 9 12 11 10 6 6 11 11 11 10 10 9 9 8 8 8
-12 -14 -15 -17 -18 -18 -16 -13 -9 -3 -1 -0 6 10 11 12 12 12 14 14 13 11 9 6 5 5 4 2 -0 -1 -2 -2 10 11 12 12 12 11 8 11 11 10 10 10 10 10 9 9 7
-11 -14 -15 -15 -17 -20 -20 -19 -13 -5 -2 -1 3 11 12 12 12 13 14 14 12 11 11 11 11 9 8 2 -0 3 7 6 7 11 13 12 11 10 10 11 11 10 11 11 10 10 9 8 7
-11 -12 -14 -15 -18 -17 -20 -21 -18 -17 -12 -2 -1 8 12 12 13 14 15 14 12 12 12 12 12 11 10 8 9 10 9 10 11 10 11 11 11 10 12 12 12 12 11 11 10 9 7 7 6
-12 -10 -13 -14 -15 -17 -18 -17 -19 -19 -18 -3 1 10 14 14 14 13 13 14 12 13 12 12 12 11 10 10 10 9 11 11 11 11 10 9 9 11 11 12 12 12 11 11 8 7 4 4 5
-14 -12 -9 -11 -14 -16 -17 -14 -16 -19 -18 -2 6 11 11 12 13 13 12 13 12 12 12 12 12 11 10 12 10 10 11 11 11 9 8 9 11 10 10 12 12 12 11 8 8 7 3 -1 1
-12 -10 -9 -10 -13 -16 -17 -15 -16 -18 -16 -0 9 10 8 3 10 10 12 12 13 12 12 11 11 12 11 11 10 10 10 10 9 10 9 11 11 11 11 11 12 12 10 8 7 5 -0 -8 -4
-9 -9 -10 -10 -12 -14 -16 -17 -15 -16 -14 -1 11 10 9 9 8 12 13 11 12 13 12 12 11 12 11 11 10 9 9 11 9 9 9 9 12 11 11 10 10 10 8 8 7 4 -2 -5 -2
-9 -9 -10 -12 -13 -12 -14 -18 -15 -16 -16 -10 9 8 5 6 5 9 14 12 12 12 12 11 11 11 10 11 9 9 9 10 11 10 8 9 10 12 11 11 9 9 8 7 7 3 -0 -1 -2
-9 -9 -9 -12 -14 -14 -14 -15 -18 -16 -16 -16 4 8 6 3 3 5 13 13 13 13 11 10 11 10 10 10 9 10 10 10 11 10 9 9 10 10 10 10 8 8 8 7 7 4 -0 -1 -2
-8 -10 -11 -12 -13 -14 -14 -14 -16 -16 -17 -16 -9 5 4 4 4 12 13 13 13 12 11 10 11 11 10 10 11 10 10 10 10 9 8 8 6 9 9 9 9 8 8 8 7 5 0 -5 -1
-6 -10 -11 -12 -12 -11 -14 -10 -14 -16 -16 -17 -5 -2 5 8 6 11 13 13 12 12 11 10 11 10 10 10 11 9 10 9 9 8 7 1 -3 8 6 6 10 9 8 8 8 5 -0 -7 2
-8 -11 -11 -12 -12 -12 -12 -9 -11 -16 -14 -16 -6 -4 -1 5 6 6 12 12 12 12 11 11 11 10 11 10 10 9 10 9 8 6 2 -5 -1 4 6 8 9 9 8 8 8 4 -1 -1 1
-1 -1 -10 -10 -10 -8 -11 -10 -9 -11 -14 -16 -5 -4 -1 -1 5 5 7 13 13 12 12 12 11 11 11 11 10 10 10 8 7 5 -6 -7 -0 4 7 9 9 8 9 8 5 4 -2 1 3
1 1 -3 -2 -5 -6 -12 -10 -9 -10 -15 -15 -9 -0 2 2 6 7 7 9 13 13 12 12 12 11 11 10 11 10 9 7 5 3 -8 -11 -6 2 8 8 8 7 8 5 5 3 2 3 4
2 -0 -1 1 -4 -8 -12 -8 -9 -12 -14 -14 -11 -11 -0 3 9 8 6 10 13 12 12 12 12 11 11 11 10 10 8 6 6 2 -7 -11 -12 -5 6 7 8 7 5 7 5 5 4 3 4
3 3 -4 -4 -5 -1 -6 -9 -11 -12 -14 -13 -12 -12 -8 5 8 9 10 10 13 13 11 12 11 11 11 11 10 10 8 7 6 0 -7 -6 -7 -9 -9 -2 2 5 6 7 6 6 5 4 4
2 -1 -4 -4 -1 -1 -2 -8 -6 -7 -10 -12 -12 -10 -8 8 10 10 10 10 12 11 12 12 12 11 10 11 10 9 8 8 6 -0 -8 1 2 -0 -2 -8 -2 4 5 7 5 6 5 4 5
-0 -0 -3 -2 -2 1 -1 -3 7 7 6 -8 -9 -11 0 10 10 8 7 7 9 10 12 12 11 11 10 11 11 10 9 8 6 -0 -3 -1 0 1 2 -6 -15 -11 -6 5 3 4 2 0 -1
1 -3 -3 3 -1 -2 -0 6 5 5 4 5 -1 -10 4 7 9 9 11 11 8 11 12 12 11 11 10 11 11 10 9 9 6 1 -1 0 2 4 -1 -13 -15 -17 -15 -13 -14 -11 -12 -10 -11
Wind_Speed
11 10 7 12 3 4 6 9 10 17 4 12 17 18 12 7 5 7 25 27 31 31 29 25 23 22 22 22 22 21 20 19 19 20 21 21 22 23 23 22 22 21 21 21 21 21 20 19 21
10 6 4 4 2 2 6 13 17 7 7 10 14 28 21 11 19 33 35 29 29 32 29 25 23 23 22 22 22 20 19 18 19 20 20 21 21 21 21 20 19 18 18 19 19 20 20 20 19
6 6 2 3 4 6 7 20 10 22 8 11 6 19 8 16 28 26 31 33 34 31 28 25 23 22 21 21 20 19 19 19 19 20 20 21 20 20 18 18 17 16 16 17 19 20 19 18 16
4 4 5 3 9 9 12 21 18 15 9 10 9 7 11 15 22 23 29 29 32 31 28 26 23 22 21 20 20 19 19 19 20 20 20 20 20 19 17 16 15 15 15 16 18 18 17 15 11
4 4 3 5 10 14 16 33 26 17 11 6 13 6 11 19 24 29 28 24 25 32 29 26 23 22 21 21 21 20 19 20 20 20 20 20 18 17 16 15 14 15 16 17 18 17 15 13 10
3 5 2 9 13 12 16 38 25 21 11 9 18 13 9 21 35 31 28 21 27 29 28 27 24 23 22 21 21 20 19 19 19 18 18 17 16 15 14 14 14 15 15 16 16 16 15 13 11
7 1 6 9 12 14 14 31 22 22 16 7 20 6 15 30 27 31 26 24 25 24 26 27 25 23 21 21 21 21 20 19 19 19 18 17 17 16 15 15 15 15 16 16 16 14 13 12 10
8 3 6 10 11 19 20 22 19 15 8 3 18 8 13 38 32 27 27 30 28 26 26 26 26 24 22 21 20 21 20 20 19 18 17 17 16 15 14 15 15 15 17 17 16 14 12 14 11
18 4 11 13 14 18 18 15 12 19 24 17 9 27 39 39 33 32 33 32 30 29 28 27 27 25 24 23 21 20 20 19 19 18 16 15 15 15 14 14 16 17 19 19 15 16 12 13 15
8 7 12 7 10 13 21 25 8 9 33 33 6 18 43 39 40 38 37 35 31 31 32 29 28 27 25 23 22 21 21 20 19 18 18 15 12 15 14 15 17 19 21 20 17 18 16 16 14
11 14 7 17 24 31 25 23 19 11 9 30 22 35 44 45 42 38 36 34 33 30 32 31 30 28 25 23 23 22 21 22 22 22 18 16 12 15 12 16 18 21 21 22 19 18 17 11 12
11 16 22 26 35 30 16 27 13 22 28 37 20 33 49 53 49 45 38 34 34 31 31 32 30 27 26 24 23 23 22 23 25 21 16 15 15 9 11 14 17 20 21 20 18 16 13 15 16
16 13 25 28 33 37 33 26 15 20 26 35 24 32 47 52 55 46 38 33 36 35 32 31 29 26 24 23 24 24 23 22 19 15 15 19 13 10 10 15 17 22 22 18 14 17 16 15 13
13 18 19 26 26 29 26 23 22 31 25 39 32 35 43 45 52 47 36 36 40 35 33 33 32 26 23 27 26 24 22 23 18 16 16 15 13 9 11 16 21 20 20 16 12 13 15 15 16
23 15 15 21 18 14 25 16 27 30 22 40 26 37 33 27 37 51 51 41 39 40 40 40 36 30 24 25 21 21 21 22 23 20 15 15 14 13 11 17 20 20 18 17 13 11 13 17 14
12 8 8 5 12 21 17 26 19 29 27 33 26 35 39 22 13 35 46 43 42 44 41 41 40 33 29 25 26 27 27 27 22 17 14 19 17 14 12 18 21 19 20 17 10 9 15 17 15
7 12 13 10 14 10 11 19 11 31 29 27 25 33 30 33 48 39 42 46 42 47 43 45 39 34 33 27 27 27 22 19 18 17 16 19 16 14 11 12 14 17 20 15 12 10 14 21 19
7 12 10 15 16 13 21 20 13 33 28 25 29 36 38 38 32 32 42 43 44 45 43 44 39 37 35 30 29 25 23 18 18 18 16 22 19 16 15 14 15 17 19 15 12 13 14 15 18
16 13 14 15 18 21 16 20 17 26 30 19 31 34 34 37 32 27 32 47 44 43 43 43 41 40 39 34 33 29 30 24 21 20 17 21 22 21 17 17 16 20 23 20 16 15 17 19 17
22 21 21 17 17 15 17 19 15 22 24 28 27 36 41 36 33 28 39 47 39 47 44 46 42 41 38 35 35 32 34 26 22 19 16 18 23 22 20 20 18 17 22 24 21 19 22 20 15
21 18 16 17 17 20 12 16 19 19 29 30 31 42 40 47 42 27 44 52 46 45 48 46 46 41 39 37 33 31 31 27 26 22 17 19 21 29 21 18 20 21 22 26 22 18 18 22 18
22 16 15 14 12 14 8 13 15 21 23 21 29 32 39 43 40 33 45 52 50 50 48 45 45 44 40 38 34 32 36 33 29 23 20 20 22 30 26 23 25 24 22 22 21 18 18 21 22
25 18 17 16 13 12 21 6 13 16 24 21 23 36 37 36 44 42 26 54 52 55 51 50 48 45 42 38 33 33 33 28 25 22 22 21 27 27 22 32 24 22 20 19 20 21 20 19 18
17 18 21 10 6 9 22 8 15 14 26 20 13 36 39 43 36 38 42 43 51 55 53 50 50 49 44 38 37 36 34 29 26 25 24 24 29 28 30 27 26 24 20 19 23 21 20 19 14
12 13 5 5 4 10 18 10 13 16 22 21 18 24 38 42 39 40 53 44 48 58 52 49 51 52 46 42 38 36 33 29 27 25 24 27 29 32 33 30 27 25 18 16 24 23 21 20 16
15 12 4 8 9 12 15 8 13 19 9 13 30 37 37 42 40 48 46 49 47 59 54 51 51 51 47 43 38 36 31 28 25 23 24 27 26 31 34 31 27 25 20 17 22 24 24 25 23
4 8 15 7 6 3 4 7 16 23 11 9 17 31 30 45 46 48 49 50 47 50 55 53 52 52 48 41 38 35 33 30 25 25 25 26 26 27 27 27 26 25 21 19 22 23 25 25 26
8 9 4 3 7 9 6 10 6 9 9 14 16 24 32 48 50 54 54 45 43 43 54 56 52 51 47 44 38 37 34 29 26 26 28 28 26 24 23 25 27 28 25 23 23 23 24 24 25
7 11 5 3 3 2 3 5 12 21 24 12 13 28 29 44 48 47 43 42 30 44 46 49 52 49 45 44 41 39 35 31 30 28 28 27 24 22 22 24 26 26 27 29 26 25 24 23 21
8 5 7 4 2 8 4 3 15 21 23 23 12 32 36 45 48 46 42 41 44 37 43 46 48 47 46 48 47 42 38 34 33 31 28 26 23 20 21 23 23 23 24 26 25 24 23 23 21
Wind_Direction
284 302 323 331 24 72 262 267 259 286 279 79 78 99 100 74 125 152 153 169 156 149 146 145 139 135 131 128 125 124 122 119 118 118 116 115 116 115 114 112 110 106 102 99 104 104 99 93 89
267 285 275 274 108 297 273 266 261 319 60 73 92 91 75 76 108 134 145 160 158 151 148 145 140 137 134 130 127 126 123 122 122 121 119 118 119 118 117 114 112 108 104 101 107 109 106 101 97
259 242 243 156 189 212 246 268 284 306 41 11 71 79 75 110 118 140 150 154 154 150 150 146 142 139 135 132 129 128 127 127 127 126 124 122 122 121 120 118 116 113 110 109 113 116 115 111 107
219 200 235 166 242 249 228 259 278 291 87 62 57 64 87 133 135 151 147 153 156 153 153 146 143 142 138 135 134 133 132 132 130 129 129 127 126 124 122 120 117 114 112 115 118 120 122 120 111
212 264 229 215 236 248 267 270 277 295 301 71 76 78 90 119 137 147 146 162 166 153 152 146 146 143 141 140 138 137 137 137 136 135 133 130 128 125 121 116 113 112 115 118 118 121 123 119 109
232 208 241 230 244 239 241 260 274 277 264 146 108 111 77 135 139 140 157 148 155 151 151 147 149 148 148 145 141 139 140 139 137 134 130 125 121 117 115 116 115 115 114 114 118 122 122 121 117
213 226 222 235 252 267 256 259 264 268 253 193 151 93 138 141 146 155 164 159 157 156 158 153 152 152 149 146 143 142 142 139 136 134 131 128 127 129 126 122 116 115 115 115 117 118 123 120 113
248 172 258 244 246 252 263 275 342 338 204 203 182 147 162 147 161 159 163 163 162 162 165 160 156 154 152 148 146 143 141 141 138 134 133 133 130 127 123 119 118 118 117 116 109 108 115 112 104
255 241 241 240 236 241 268 285 324 311 298 320 290 169 159 147 160 161 160 158 162 165 168 168 160 158 157 152 148 146 144 142 139 137 135 135 136 134 126 123 120 119 120 111 108 100 97 87 75
194 224 235 238 248 251 259 274 246 228 271 303 64 147 153 155 167 166 165 162 166 168 168 170 166 164 162 157 153 149 146 143 140 139 135 135 132 130 131 126 124 124 122 114 113 103 86 81 86
241 244 264 264 260 257 265 265 219 198 242 261 151 152 161 165 168 169 171 172 173 170 170 169 168 166 167 162 156 151 147 142 138 142 142 139 132 134 140 143 138 134 131 127 123 113 109 108 106
261 250 242 256 267 276 274 277 249 218 218 250 206 188 175 173 174 179 177 175 173 173 173 170 167 167 166 164 158 152 147 146 143 148 150 159 160 153 151 155 144 138 135 131 132 130 141 139 145
253 264 265 251 252 258 269 268 272 235 215 236 219 194 181 183 180 182 180 179 173 172 171 168 162 164 157 162 154 146 141 140 151 153 165 172 171 167 162 164 153 142 142 144 147 145 152 154 159
283 292 280 273 266 255 250 261 262 257 259 215 227 201 195 198 185 177 170 172 173 176 172 170 167 166 158 150 148 150 145 147 155 159 157 171 175 180 163 164 156 154 156 160 159 153 157 160 165
270 279 288 273 277 270 254 261 249 254 259 221 209 187 182 200 183 181 177 176 179 177 175 171 170 167 169 162 169 171 170 176 177 179 185 194 184 167 166 169 164 162 162 173 157 150 149 161 169
290 283 263 275 258 268 255 246 258 257 251 219 179 183 185 210 203 183 182 175 176 181 180 173 171 164 170 171 170 166 166 173 181 186 191 181 171 167 172 174 168 172 167 163 167 157 146 154 155
230 256 258 264 249 239 241 251 244 257 248 212 159 174 193 205 244 260 187 182 181 186 180 172 172 170 174 172 173 169 179 176 185 181 173 170 174 169 169 175 178 173 163 169 169 152 154 145 141
221 237 251 255 262 252 250 251 233 248 261 195 149 161 179 183 213 245 188 184 190 186 184 172 171 176 177 173 175 170 181 178 194 203 205 183 174 176 177 169 165 169 164 169 179 163 139 141 146
263 260 250 242 235 251 254 245 231 236 248 228 156 164 171 186 188 210 199 187 188 184 178 179 171 180 176 177 182 178 177 182 193 202 189 187 176 176 183 176 162 168 168 177 189 171 156 152 152
237 246 259 273 269 257 255 250 231 227 239 231 163 166 180 196 201 209 222 197 180 181 181 180 174 179 178 181 178 179 178 185 193 198 189 188 173 176 180 179 164 164 174 178 190 186 165 163 161
250 242 245 245 260 270 270 262 246 234 229 232 223 177 187 186 193 199 199 188 182 184 178 183 178 178 178 183 181 184 182 190 193 195 195 190 176 179 181 194 180 184 192 186 193 195 182 166 167
246 243 248 258 260 261 229 263 257 224 222 227 212 196 183 188 199 192 182 181 185 184 181 183 178 178 181 187 186 189 189 191 196 194 193 186 177 180 186 183 186 186 198 196 201 200 187 172 172
236 235 235 237 255 263 270 259 265 221 213 213 213 205 197 182 193 196 195 186 185 181 185 183 182 180 184 187 188 185 192 194 191 191 187 181 173 175 178 177 186 191 203 211 211 191 183 174 177
285 290 238 211 241 260 261 225 265 265 201 207 203 202 199 208 186 185 191 196 186 186 187 183 184 180 182 183 186 189 193 194 191 187 184 181 178 176 176 182 193 196 205 213 200 187 174 169 160
299 270 210 233 237 242 255 250 246 272 215 194 204 173 193 198 182 176 180 203 180 185 188 187 186 181 181 184 187 194 197 200 193 188 186 183 181 178 179 186 196 201 202 201 193 187 177 178 191
297 256 199 198 218 240 255 237 250 272 209 184 193 202 188 185 174 184 184 201 183 191 192 190 188 182 182 185 185 195 199 197 197 194 189 187 185 180 185 188 196 205 199 198 198 189 187 187 195
267 220 245 224 270 313 243 226 267 261 225 209 212 202 187 179 182 184 190 191 182 184 198 194 190 187 184 186 187 191 191 199 198 193 192 186 186 185 189 194 196 202 201 199 197 200 198 199 206
188 273 249 190 213 231 262 252 228 262 219 217 236 199 187 162 174 181 186 188 195 203 198 196 191 186 186 189 189 192 195 198 199 194 190 191 193 195 198 199 200 202 205 204 202 202 203 203 210
170 225 232 112 229 228 220 230 4 3 342 236 229 198 162 160 169 183 190 199 191 217 192 194 188 190 195 194 193 196 197 198 199 196 194 199 199 201 203 203 200 201 204 208 210 211 212 212 213
292 272 181 148 152 247 281 292 24 14 356 4 299 192 157 171 174 180 175 173 186 207 191 196 187 194 192 191 196 197 197 198 197 196 200 201 200 199 201 200 202 202 200 204 206 209 211 211 207
Height
1515 1515 1515 1513 1523 1520 1523 1511 1492 1489 1487 1480 1477 1479 1491 1492 1494 1520 1520 1523 1526 1528 1532 1535 1537 1539 1542 1544 1547 1550 1552 1554 1556 1558 1559 1561 1563 1564 1566 1568 1570 1572 1573 1574 1575 1576 1576 1576 1577
1513 1515 1515 1514 1529 1539 1527 1498 1494 1494 1486 1482 1480 1481 1487 1500 1496 1506 1515 1523 1525 1528 1532 1535 1538 1540 1542 1545 1548 1551 1554 1556 1558 1560 1562 1563 1565 1567 1568 1570 1572 1574 1575 1576 1577 1578 1578 1579 1579
1512 1514 1515 1517 1526 1535 1523 1494 1493 1492 1488 1485 1487 1486 1491 1498 1506 1509 1514 1520 1523 1527 1532 1535 1539 1542 1543 1546 1549 1553 1555 1557 1559 1562 1564 1565 1567 1569 1570 1572 1574 1575 1576 1577 1578 1579 1580 1581 1580
1510 1513 1513 1519 1523 1511 1505 1490 1491 1493 1490 1487 1489 1495 1499 1500 1500 1507 1515 1520 1523 1527 1532 1536 1540 1542 1545 1547 1549 1553 1556 1559 1561 1563 1565 1567 1569 1570 1572 1573 1575 1577 1578 1579 1580 1581 1582 1582 1582
1509 1509 1514 1518 1514 1503 1496 1485 1491 1494 1493 1487 1488 1501 1504 1506 1504 1509 1515 1519 1523 1527 1532 1537 1541 1543 1546 1548 1550 1554 1557 1559 1562 1564 1566 1568 1570 1572 1574 1576 1577 1578 1579 1580 1581 1583 1584 1584 1584
1508 1507 1517 1515 1505 1498 1494 1483 1490 1492 1492 1490 1491 1497 1511 1512 1513 1514 1513 1520 1525 1527 1532 1537 1541 1544 1547 1549 1551 1554 1558 1561 1563 1566 1569 1571 1573 1575 1576 1578 1579 1580 1581 1582 1584 1585 1586 1586 1586
1506 1507 1511 1505 1503 1495 1489 1484 1488 1487 1489 1488 1488 1498 1509 1511 1517 1515 1516 1521 1526 1529 1533 1536 1540 1544 1548 1550 1551 1554 1558 1562 1565 1567 1570 1572 1574 1575 1577 1579 1581 1582 1583 1584 1585 1587 1587 1588 1588
1502 1504 1506 1500 1502 1494 1486 1485 1488 1485 1485 1486 1486 1495 1506 1504 1509 1516 1518 1520 1526 1530 1533 1536 1540 1544 1548 1551 1552 1555 1559 1562 1565 1568 1571 1573 1575 1577 1579 1580 1582 1584 1585 1586 1587 1588 1589 1589 1589
1500 1506 1502 1500 1497 1488 1487 1487 1486 1486 1489 1482 1487 1484 1490 1500 1505 1511 1515 1521 1525 1529 1532 1535 1539 1544 1548 1551 1553 1556 1559 1564 1566 1569 1572 1574 1576 1578 1580 1581 1583 1585 1587 1588 1590 1591 1591 1591 1591
1495 1498 1493 1488 1486 1487 1487 1486 1486 1491 1491 1489 1487 1486 1494 1496 1501 1505 1510 1516 1522 1527 1531 1533 1538 1543 1548 1550 1554 1556 1560 1564 1567 1570 1572 1574 1577 1579 1581 1583 1585 1586 1588 1590 1592 1592 1592 1592 1592
1487 1488 1489 1486 1484 1486 1484 1481 1485 1485 1488 1487 1497 1493 1491 1493 1499 1503 1509 1511 1517 1523 1528 1532 1537 1541 1547 1550 1554 1556 1560 1564 1567 1571 1574 1574 1578 1580 1582 1584 1586 1587 1589 1591 1593 1594 1594 1593 1593
1488 1484 1484 1485 1484 1482 1482 1479 1477 1477 1476 1482 1492 1488 1487 1485 1489 1495 1502 1508 1515 1519 1527 1530 1535 1540 1545 1550 1553 1556 1560 1564 1567 1571 1574 1575 1578 1581 1582 1585 1587 1589 1590 1592 1593 1594 1594 1595 1594
1482 1481 1479 1479 1478 1476 1477 1475 1476 1472 1475 1475 1484 1488 1489 1486 1484 1494 1499 1504 1512 1516 1523 1530 1534 1538 1544 1548 1552 1555 1560 1564 1567 1570 1572 1575 1579 1581 1583 1585 1587 1590 1591 1592 1593 1596 1596 1597 1596
1478 1476 1473 1472 1471 1472 1472 1469 1471 1464 1470 1470 1475 1481 1486 1491 1485 1491 1497 1502 1510 1516 1520 1528 1532 1537 1544 1547 1550 1554 1558 1563 1567 1570 1574 1576 1579 1581 1582 1585 1588 1590 1591 1592 1594 1597 1597 1597 1598
1476 1476 1470 1465 1467 1467 1468 1466 1453 1462 1465 1464 1466 1474 1482 1492 1491 1484 1491 1500 1506 1513 1519 1524 1530 1537 1542 1545 1548 1553 1557 1561 1566 1570 1573 1575 1578 1581 1582 1585 1587 1590 1592 1592 1594 1595 1597 1597 1598
1477 1475 1477 1463 1463 1461 1467 1456 1452 1457 1458 1458 1461 1463 1469 1483 1491 1496 1495 1500 1506 1511 1515 1522 1529 1534 1540 1544 1548 1552 1557 1561 1565 1568 1571 1574 1577 1579 1581 1584 1587 1590 1591 1592 1594 1595 1596 1598 1601
1477 1476 1472 1464 1456 1457 1457 1452 1450 1451 1450 1453 1456 1459 1464 1465 1479 1498 1494 1498 1504 1506 1512 1516 1525 1531 1536 1543 1547 1552 1555 1558 1562 1566 1570 1572 1575 1578 1580 1584 1587 1589 1590 1592 1595 1595 1596 1597 1601
1477 1475 1471 1465 1457 1453 1450 1449 1447 1445 1443 1447 1454 1456 1458 1464 1466 1468 1487 1494 1500 1503 1510 1513 1520 1528 1534 1540 1545 1550 1554 1557 1560 1563 1567 1571 1574 1577 1580 1583 1585 1588 1591 1591 1594 1595 1596 1598 1600
1465 1463 1460 1454 1450 1451 1447 1444 1443 1438 1439 1441 1448 1451 1453 1456 1464 1475 1480 1489 1495 1498 1504 1510 1515 1524 1529 1535 1540 1547 1550 1555 1557 1561 1564 1569 1573 1575 1577 1581 1584 1587 1589 1592 1594 1595 1596 1598 1601
1458 1459 1454 1448 1444 1444 1442 1441 1436 1430 1427 1434 1441 1445 1448 1451 1453 1467 1474 1482 1485 1491 1498 1505 1512 1519 1525 1532 1537 1544 1549 1552 1556 1558 1561 1566 1571 1573 1576 1580 1583 1586 1589 1591 1593 1595 1595 1598 1602
1446 1448 1448 1449 1442 1435 1442 1439 1432 1424 1424 1426 1430 1433 1439 1443 1451 1464 1469 1477 1472 1490 1494 1500 1506 1515 1522 1529 1535 1542 1547 1550 1553 1555 1558 1563 1568 1572 1574 1578 1581 1584 1587 1590 1592 1593 1595 1596 1602
1441 1436 1436 1438 1442 1445 1435 1447 1425 1416 1416 1419 1420 1425 1432 1436 1441 1454 1462 1471 1479 1483 1491 1497 1503 1512 1520 1525 1530 1535 1539 1542 1549 1552 1555 1560 1565 1570 1573 1577 1578 1582 1585 1588 1591 1592 1595 1596 1598
1430 1429 1430 1432 1437 1439 1430 1445 1420 1408 1411 1411 1411 1414 1423 1429 1437 1446 1461 1470 1473 1479 1488 1492 1500 1508 1517 1522 1527 1531 1537 1541 1546 1549 1553 1557 1563 1567 1572 1574 1577 1580 1584 1587 1589 1591 1593 1595 1598
1436 1433 1421 1425 1434 1446 1424 1436 1423 1414 1398 1402 1406 1408 1416 1425 1434 1445 1455 1461 1469 1475 1483 1490 1497 1504 1512 1518 1523 1528 1533 1538 1542 1545 1550 1554 1560 1565 1570 1572 1575 1579 1583 1585 1587 1590 1592 1594 1597
1435 1434 1431 1438 1447 1440 1417 1426 1417 1396 1388 1390 1399 1405 1412 1421 1429 1437 1448 1458 1460 1471 1478 1486 1491 1499 1507 1514 1520 1526 1531 1535 1538 1541 1546 1551 1557 1562 1567 1570 1572 1575 1580 1583 1585 1588 1590 1592 1595
1428 1427 1429 1442 1439 1430 1413 1420 1406 1390 1381 1384 1390 1397 1406 1416 1425 1434 1440 1449 1454 1461 1471 1480 1488 1496 1504 1511 1517 1523 1528 1532 1536 1540 1544 1550 1555 1559 1564 1567 1570 1573 1577 1580 1584 1587 1589 1590 1593
1429 1430 1416 1423 1421 1428 1415 1404 1396 1389 1379 1382 1386 1391 1399 1408 1420 1428 1436 1443 1443 1457 1464 1474 1481 1492 1500 1507 1514 1518 1523 1529 1533 1538 1543 1548 1553 1557 1560 1564 1568 1570 1574 1577 1580 1584 1586 1588 1590
1425 1412 1419 1416 1433 1432 1415 1408 1407 1386 1383 1380 1379 1383 1391 1402 1415 1423 1429 1439 1448 1454 1461 1465 1476 1485 1495 1501 1509 1514 1521 1526 1532 1536 1540 1545 1550 1554 1557 1560 1566 1569 1571 1574 1577 1581 1583 1584 1586
1413 1415 1412 1411 1414 1427 1424 1413 1402 1404 1393 1377 1373 1375 1385 1394 1405 1414 1423 1431 1443 1450 1456 1460 1471 1482 1492 1498 1504 1511 1517 1524 1529 1532 1537 1542 1546 1550 1553 1557 1562 1566 1569 1572 1574 1577 1580 1581 1583
1407 1405 1406 1426 1422 1419 1426 1420 1407 1403 1399 1386 1371 1366 1379 1389 1397 1406 1416 1429 1440 1442 1452 1462 1467 1476 1485 1493 1500 1507 1514 1520 1524 1528 1533 1537 1542 1546 1550 1554 1559 1562 1565 1569 1571 1574 1576 1578 1579